CZ-4 DEB, 27762

Orbit data source: Space-Track

CZ-4 DEB, 27762 is space debris in SSO originally from a launch on Thu, 14 Oct 1999 UTC launched from the Taiyaun Space Center, China (TSC). Debris objects in space refer to the collection of defunct objects orbiting the Earth. Examples of debris include non-operational satellites, rocket bodies, and fragments generated from explosions, collisions, or faulty payload assembly.

Loading next visibility...
Identifier
27762, 1999-057MV
Orbit
SSO
Country
Flag of CNCN / PRC
Related business
Manufacturer
Unknown
Mission
Spacecraft
Bus & Motor
Unknown
Mass
Unknown
Launch date (UTC)
1999-10-14 (26 years ago)
Launch vehicle
Unknown
Launch site
Taiyaun Space Center, China (TSC)
Object type
Payload
Rocket body
Debris
Shape & HBR
Unknown shape, 0.1 m
Radar Cross Section
Small (<0.1 m²)

Expand to show TLE details & history
Last TLE update: 14 hours ago

TLE from 14 hours ago
0 CZ-4 DEB
1 27762U 99057MV  25288.81644128  .00001543  00000-0  64786-3 0  9990
2 27762  98.6653  46.1158 0168657  72.1035  77.7935 14.19884283228423
Epoch: 2025-10-15T19:35Z
TLE epoch observation values (Epoch: 2025-10-15T19:35:40.526Z)
Latitude
27.89883°
Longitude
-87.78463°
Altitude
805.442 km
Speed
7.465 km/s
True Right ascension
15h 22m 52s
True Declination
27° 45' 28"
Sunlit
Object was in daylight at epoch
Visualization orbit readout
Latitude
Unknown
Longitude
Unknown
Altitude
Unknown
Speed
Unknown
Apparent Right ascension
Unknown
Apparent Declination
Unknown
Sunlit
N/A
Visualization observer readout
Local Sidereal Time
03:52:23
Azimuth
Unknown
Elevation
Unknown
Doppler factor
Unknown
Orbital elements
Apogee altitude
944.35 km
Perigee altitude
701.449 km
Semi-major axis
7,201.037 km
Eccentricity
0.01687
Inclination
98.6653°
RAAN
46.1158°
Arg. of periapsis
72.1035°
True anomaly
79.69058°
Mean anomaly
77.7935°
Eccentric anomaly
78.74124°
Mean motion
3.55182 °/min
Orbital period
101.36 mins
BSTAR
0.00064786
Loading maneuver chart data...
Computing Atmospheric mass density...

Documentation

Showing up to 5 results
|